DW7177 Durham UK current weather conditions

sailwx.info

Wind from 241 at 3 knots gusting 8

Air temperature 19.4° C
Dewpoint 10.4° C

Last reported at 2019-Jun-18 13:08 UTC.
Time now 2019-Jun-18 13:47 UTC

Location: N 54°47' W 001°36'.
View on Google Maps.

See reports from other nearby stations

  
Tides and Currents Weather Stations Pressure Air Temp Water Temp Dewpoint Dewpoint Depression Visibility Wind Speed Wind Dir Waves Ship Positions
date/time (UTC)wind fromknots sea level pressurealtimeterstation pressurevisibilityair tempwater tempwave heightnotes
2019-Jun-18 13:08 241 3 gusting 8 19.4
2019-Jun-18 13:04 234 3 gusting 9 20.0
2019-Jun-18 13:00 228 3 gusting 9 20.0
2019-Jun-18 12:52 218 2 gusting 7 20.0
2019-Jun-18 12:48 232 3 gusting 7 20.0
2019-Jun-18 12:44 227 3 gusting 7 20.0
2019-Jun-18 12:40 218 4 gusting 13 20.0
2019-Jun-18 12:32 238 3 gusting 10 19.4
2019-Jun-18 12:28 242 2 gusting 6 19.4
2019-Jun-18 12:24 244 2 gusting 7 19.4
2019-Jun-18 12:20 234 2 gusting 12 19.4
2019-Jun-18 12:12 219 3 gusting 12 19.4
2019-Jun-18 12:08 227 3 gusting 8 19.4
2019-Jun-18 12:04 230 3 gusting 13 19.4
2019-Jun-18 12:00 229 3 gusting 13 19.4
2019-Jun-18 11:52 230 2 gusting 6 18.9
2019-Jun-18 11:48 226 1 gusting 6 18.3
2019-Jun-18 11:44 253 1 gusting 6 17.8
2019-Jun-18 11:40 272 2 gusting 6 17.8
2019-Jun-18 11:32 261 1 gusting 5 17.8
2019-Jun-18 11:28 258 1 gusting 6 17.8
2019-Jun-18 11:24 280 1 gusting 6 17.8
2019-Jun-18 11:20 276 1 gusting 6 17.8
2019-Jun-18 11:12 235 2 gusting 6 17.8
2019-Jun-18 11:08 242 2 gusting 6 17.8
2019-Jun-18 11:04 258 1 gusting 6 17.8
2019-Jun-18 11:00 277 1 gusting 6 17.8
2019-Jun-18 10:52 270 2 gusting 6 17.8
2019-Jun-18 10:48 282 2 gusting 6 18.3
2019-Jun-18 10:44 286 2 gusting 7 18.3
2019-Jun-18 10:40 278 2 gusting 7 17.8
2019-Jun-18 10:32 222 2 gusting 10 17.8
2019-Jun-18 10:28 224 3 gusting 10 17.8
2019-Jun-18 10:24 227 3 gusting 10 17.8
2019-Jun-18 10:20 225 4 gusting 9 18.3
2019-Jun-18 10:12 226 3 gusting 9 18.3
2019-Jun-18 10:08 233 3 gusting 9 18.3
2019-Jun-18 10:04 232 3 gusting 9 18.3
2019-Jun-18 10:00 230 3 gusting 9 18.3
2019-Jun-18 09:52 219 3 gusting 9 18.3
2019-Jun-18 09:48 219 3 gusting 9 18.3
2019-Jun-18 09:44 234 3 gusting 10 18.3
2019-Jun-18 09:40 237 4 gusting 10 17.8
2019-Jun-18 09:32 240 3 gusting 10 17.8
2019-Jun-18 09:28 240 3 gusting 10 17.2
2019-Jun-18 09:24 234 4 gusting 10 17.2
2019-Jun-18 09:20 237 3 gusting 7 16.7
2019-Jun-18 09:12 241 2 gusting 7 16.1
2019-Jun-18 09:08 242 4 gusting 13 16.1
2019-Jun-18 09:04 233 4 gusting 13 16.7
2019-Jun-18 09:00 222 4 gusting 9 16.7
2019-Jun-18 08:52 233 4 gusting 12 16.7
2019-Jun-18 08:48 235 4 gusting 12 16.7
2019-Jun-18 08:44 229 4 gusting 11 16.7
2019-Jun-18 08:40 235 5 gusting 13 16.7
2019-Jun-18 08:32 233 5 gusting 12 16.7
2019-Jun-18 08:28 233 5 gusting 16 16.7
2019-Jun-18 08:24 234 5 gusting 17 16.1
2019-Jun-18 08:20 233 6 gusting 17 16.1
2019-Jun-18 08:12 234 5 gusting 13 16.1
2019-Jun-18 08:08 225 4 gusting 13 16.1
2019-Jun-18 08:04 232 3 gusting 10 16.1
2019-Jun-18 08:00 230 3 gusting 13 16.1
2019-Jun-18 07:52 235 2 gusting 10 16.1
2019-Jun-18 07:48 230 2 gusting 10 16.1
2019-Jun-18 07:44 214 2 gusting 9 16.1
2019-Jun-18 07:40 203 3 gusting 12 16.1
2019-Jun-18 07:32 211 3 gusting 12 15.6
2019-Jun-18 07:28 221 3 gusting 9 15.6
2019-Jun-18 07:24 228 3 gusting 10 15.6
2019-Jun-18 07:20 240 2 gusting 10 15.6
2019-Jun-18 07:12 229 1 gusting 6 15.6
2019-Jun-18 07:08 223 1 gusting 6 15.6
2019-Jun-18 07:04 213 2 gusting 7 15.6
2019-Jun-18 07:00 195 1 gusting 7 15.0
2019-Jun-18 06:52 170 15.0
2019-Jun-18 06:48 167 0 gusting 4 15.0
2019-Jun-18 06:44 165 0 gusting 4 14.4
2019-Jun-18 06:40 162 14.4
2019-Jun-18 06:32 162 13.9
2019-Jun-18 06:28 157 13.3
2019-Jun-18 06:24 149 0 gusting 4 13.3
2019-Jun-18 06:20 144 0 gusting 4 12.8
2019-Jun-18 06:12 141 12.2
2019-Jun-18 06:08 132 0 gusting 3 12.2
2019-Jun-18 06:04 144 0 gusting 3 12.2
2019-Jun-18 06:00 167 0 gusting 3 12.2
2019-Jun-18 05:52 213 0 gusting 4 12.2
2019-Jun-18 05:48 215 0 gusting 4 12.2
2019-Jun-18 05:44 218 0 gusting 4 12.2
2019-Jun-18 05:40 224 11.7
2019-Jun-18 05:32 225 11.7
2019-Jun-18 05:28 225 0 gusting 4 11.7
2019-Jun-18 05:24 225 0 gusting 4 11.7
2019-Jun-18 05:20 225 0 gusting 4 11.7
2019-Jun-18 05:12 225 0 gusting 5 11.1
2019-Jun-18 05:08 225 1 gusting 5 11.1
2019-Jun-18 05:04 225 0 gusting 5 11.1
2019-Jun-18 05:00 225 0 gusting 3 11.1
2019-Jun-18 04:52 225 11.1
2019-Jun-18 04:48 225 0 gusting 3 11.1
2019-Jun-18 04:44 225 0 gusting 3 11.1
2019-Jun-18 04:40 225 0 gusting 3 11.1
2019-Jun-18 04:32 224 1 gusting 5 11.1
2019-Jun-18 04:28 208 2 gusting 6 11.1
2019-Jun-18 04:24 199 2 gusting 6 11.1
2019-Jun-18 04:20 188 1 gusting 6 11.1
2019-Jun-18 04:12 186 0 gusting 2 11.1
2019-Jun-18 04:08 186 11.1
2019-Jun-18 04:04 185 11.1
2019-Jun-18 04:00 185 11.1
2019-Jun-18 03:52 185 0 gusting 2 11.1
2019-Jun-18 03:48 186 11.1
2019-Jun-18 03:44 186 11.1
2019-Jun-18 03:40 185 0 gusting 3 11.1
2019-Jun-18 03:32 199 1 gusting 8 11.1
2019-Jun-18 03:28 216 2 gusting 8 11.1
2019-Jun-18 03:24 225 2 gusting 8 11.1
2019-Jun-18 03:20 219 1 gusting 6 11.1
2019-Jun-18 03:12 225 2 gusting 7 11.1
2019-Jun-18 03:08 228 2 gusting 7 10.6
2019-Jun-18 03:04 232 2 gusting 7 10.6
2019-Jun-18 03:00 237 1 gusting 6 10.6
2019-Jun-18 02:52 237 0 gusting 2 10.6
2019-Jun-18 02:48 237 10.6
2019-Jun-18 02:44 237 10.6
2019-Jun-18 02:40 237 10.6
2019-Jun-18 02:32 237 10.6
2019-Jun-18 02:28 237 0 gusting 3 10.6
2019-Jun-18 02:24 237 10.6
2019-Jun-18 02:20 237 10.6
2019-Jun-18 02:12 237 10.6
2019-Jun-18 02:08 237 10.6
2019-Jun-18 02:04 238 10.6
2019-Jun-18 02:00 238 10.6
2019-Jun-18 01:52 240 11.1
2019-Jun-18 01:48 240 11.1
2019-Jun-18 01:44 240 11.1
2019-Jun-18 01:40 240 11.1
2019-Jun-18 01:32 240 11.1
2019-Jun-18 01:28 240 0 gusting 3 11.1
2019-Jun-18 01:24 240 0 gusting 5 11.1
2019-Jun-18 01:20 234 1 gusting 6 11.1
2019-Jun-18 01:12 222 1 gusting 6 11.1
2019-Jun-18 01:08 225 1 gusting 6 11.1
2019-Jun-18 01:04 212 1 gusting 6 11.1
2019-Jun-18 01:00 184 0 gusting 6 11.1
2019-Jun-18 00:52 203 1 gusting 6 11.1
2019-Jun-18 00:48 224 0 gusting 5 11.1
2019-Jun-18 00:44 224 0 gusting 4 11.1
2019-Jun-18 00:40 224 11.1
2019-Jun-18 00:32 226 0 gusting 6 11.7
2019-Jun-18 00:28 229 11.7
2019-Jun-18 00:24 235 0 gusting 5 11.7
2019-Jun-18 00:20 236 1 gusting 6 11.7
2019-Jun-18 00:12 238 0 gusting 6 11.7
2019-Jun-18 00:08 239 1 gusting 4 11.7
2019-Jun-18 00:04 239 0 gusting 4 11.7
2019-Jun-18 00:00 239 0 gusting 5 11.7
2019-Jun-17 23:52 239 0 gusting 6 11.7
2019-Jun-17 23:48 254 0 gusting 6 11.7
2019-Jun-17 23:44 244 1 gusting 6 11.7
2019-Jun-17 23:40 228 1 gusting 8 11.7
2019-Jun-17 23:32 223 0 gusting 8 11.7
2019-Jun-17 23:28 216 0 gusting 4 11.7
2019-Jun-17 23:24 224 1 gusting 6 11.7
2019-Jun-17 23:20 233 2 gusting 6 11.7
2019-Jun-17 23:12 234 2 gusting 7 12.2
2019-Jun-17 23:08 233 2 gusting 7 12.2
2019-Jun-17 23:04 232 3 gusting 7 12.2
2019-Jun-17 23:00 237 2 gusting 7 12.2
2019-Jun-17 22:52 243 2 gusting 6 12.2
2019-Jun-17 22:48 245 2 gusting 6 12.2
2019-Jun-17 22:44 240 3 gusting 9 12.2
2019-Jun-17 22:40 236 3 gusting 9 12.2
2019-Jun-17 22:32 197 2 gusting 8 12.2
2019-Jun-17 22:28 210 1 gusting 8 12.2
2019-Jun-17 22:24 230 1 gusting 8 12.2
2019-Jun-17 22:20 242 0 gusting 6 12.2
2019-Jun-17 22:12 246 12.2
2019-Jun-17 22:08 245 0 gusting 6 12.2
2019-Jun-17 22:04 234 0 gusting 6 12.8
2019-Jun-17 22:00 231 0 gusting 6 12.8
2019-Jun-17 21:52 226 0 gusting 3 12.8
2019-Jun-17 21:48 226 0 gusting 4 12.8
2019-Jun-17 21:44 231 1 gusting 6 12.8
2019-Jun-17 21:40 237 1 gusting 10 12.8
2019-Jun-17 21:32 223 2 gusting 9 13.3
2019-Jun-17 21:28 226 3 gusting 6 13.3
2019-Jun-17 21:24 229 3 gusting 7 13.3
2019-Jun-17 21:20 236 4 gusting 8 13.3
2019-Jun-17 21:12 237 4 gusting 8 13.3
2019-Jun-17 21:08 239 4 gusting 8 13.3
2019-Jun-17 21:04 244 3 gusting 8 13.3
2019-Jun-17 21:00 242 3 gusting 7 13.9
2019-Jun-17 20:52 221 3 gusting 7 13.9
2019-Jun-17 20:48 222 3 gusting 7 13.9
2019-Jun-17 20:44 230 3 gusting 9 13.9
2019-Jun-17 20:40 240 3 gusting 9 13.9
2019-Jun-17 20:32 241 3 gusting 9 14.4
2019-Jun-17 20:28 239 2 gusting 6 14.4
2019-Jun-17 20:24 236 2 gusting 6 14.4
2019-Jun-17 20:20 232 2 gusting 6 14.4
2019-Jun-17 20:12 226 2 gusting 6 15.0
2019-Jun-17 20:08 226 1 gusting 5 15.0
2019-Jun-17 20:04 229 1 gusting 6 15.0
2019-Jun-17 20:00 242 2 gusting 7 15.0
2019-Jun-17 19:52 259 2 gusting 7 15.0
2019-Jun-17 19:48 249 2 gusting 7 15.6
2019-Jun-17 19:44 236 3 gusting 10 15.6
2019-Jun-17 19:40 249 3 gusting 10 15.6
2019-Jun-17 19:32 265 2 gusting 8 15.6
2019-Jun-17 19:28 252 2 gusting 8 15.6
2019-Jun-17 19:24 259 1 gusting 7 15.6
2019-Jun-17 19:20 262 2 gusting 7 15.6
2019-Jun-17 19:12 252 2 gusting 8 15.6
2019-Jun-17 19:08 242 2 gusting 8 16.1
2019-Jun-17 19:04 239 2 gusting 8 16.1
2019-Jun-17 19:00 245 2 gusting 6 16.1
2019-Jun-17 18:52 249 3 gusting 9 16.1
2019-Jun-17 18:48 249 3 gusting 9 16.1
2019-Jun-17 18:44 247 3 gusting 9 16.7
2019-Jun-17 18:40 235 3 gusting 7 16.7
2019-Jun-17 18:32 243 3 gusting 7 16.7
2019-Jun-17 18:28 247 4 gusting 9 16.7
2019-Jun-17 18:24 241 3 gusting 9 16.7
2019-Jun-16 23:04 215 0 gusting 6 13.3
2019-Jun-16 23:00 217 0 gusting 6 13.3
2019-Jun-16 22:52 217 1 gusting 6 13.3
2019-Jun-16 22:48 217 1 gusting 6 13.3
2019-Jun-16 22:44 216 2 gusting 8 13.3
2019-Jun-16 22:40 214 1 gusting 8 13.3
2019-Jun-16 22:32 215 0 gusting 6 13.3
2019-Jun-16 22:28 215 1 gusting 6 13.3
2019-Jun-16 22:24 215 0 gusting 4 13.3
2019-Jun-16 22:20 215 0 gusting 3 13.3
2019-Jun-16 22:12 209 0 gusting 6 13.3
2019-Jun-16 22:08 205 0 gusting 6 13.3
2019-Jun-16 22:04 206 0 gusting 5 13.3
2019-Jun-16 22:00 207 13.3
2019-Jun-16 21:52 207 0 gusting 5 13.3
2019-Jun-16 21:48 205 0 gusting 6 13.3
2019-Jun-16 21:44 206 0 gusting 6 13.3
2019-Jun-16 21:40 213 0 gusting 6 13.3
2019-Jun-16 21:32 223 1 gusting 7 13.3
2019-Jun-16 21:28 214 1 gusting 7 13.3
2019-Jun-16 21:24 201 0 gusting 6 13.3
2019-Jun-16 21:20 217 1 gusting 9 13.3
2019-Jun-16 21:12 213 0 gusting 5 12.8
2019-Jun-16 21:08 219 0 gusting 4 12.8
2019-Jun-16 21:04 220 0 gusting 4 13.3
2019-Jun-16 21:00 222 0 gusting 4 13.3
2019-Jun-16 20:52 201 0 gusting 6 13.3
2019-Jun-16 20:48 172 0 gusting 6 13.3
2019-Jun-16 20:44 149 0 gusting 4 13.3
2019-Jun-16 20:40 156 0 gusting 4 13.3
2019-Jun-16 20:32 178 0 gusting 5 13.3
2019-Jun-16 20:28 192 0 gusting 5 13.9
2019-Jun-16 20:24 213 0 gusting 3 13.9
2019-Jun-16 20:20 217 0 gusting 8 13.9
2019-Jun-16 20:12 201 13.9
2019-Jun-16 20:04 188 0 gusting 6 14.4
2019-Jun-16 20:00 180 1 gusting 8 14.4
2019-Jun-16 19:52 209 1 gusting 8 14.4
2019-Jun-16 19:48 221 1 gusting 8 15.0
2019-Jun-16 19:44 220 2 gusting 8 15.0
2019-Jun-16 19:40 225 2 gusting 8 15.0
2019-Jun-16 19:32 228 1 gusting 9 15.6
2019-Jun-16 19:28 220 2 gusting 9 15.6
2019-Jun-16 19:24 208 2 gusting 9 15.6
2019-Jun-16 19:20 210 1 gusting 6 15.6
2019-Jun-16 19:12 223 1 gusting 5 15.6
2019-Jun-16 19:08 223 0 gusting 5 15.6
2019-Jun-16 19:04 229 0 gusting 6 15.6
2019-Jun-16 19:00 230 0 gusting 6 15.6
2019-Jun-16 18:52 223 1 gusting 4 15.6
2019-Jun-16 18:48 223 1 gusting 4 15.6
2019-Jun-16 18:44 226 1 gusting 7 15.6
2019-Jun-16 18:40 234 2 gusting 7 15.6
2019-Jun-16 18:32 249 2 gusting 5 15.6
2019-Jun-16 18:28 244 2 gusting 7 15.6
2019-Jun-16 18:24 234 2 gusting 7 15.6
2019-Jun-16 18:20 221 2 gusting 7 15.6
2019-Jun-16 18:12 230 2 gusting 7 16.1
2019-Jun-16 18:08 236 2 gusting 7 16.1
2019-Jun-16 18:04 240 1 gusting 6 16.7
2019-Jun-16 18:00 243 1 gusting 6 16.7
2019-Jun-16 17:52 228 1 gusting 8 16.1
2019-Jun-16 17:48 228 2 gusting 8 16.1
2019-Jun-16 17:44 237 2 gusting 7 16.1
2019-Jun-16 17:40 241 1 gusting 6 15.6
2019-Jun-16 17:32 245 0 gusting 4 15.6
2019-Jun-16 17:28 245 0 gusting 4 15.6
2019-Jun-16 17:24 245 0 gusting 4 15.6
2019-Jun-16 17:20 245 0 gusting 3 15.6
2019-Jun-16 17:12 245 15.6
2019-Jun-16 17:08 245 15.6
2019-Jun-16 17:04 245 0 gusting 3 16.1
2019-Jun-16 17:00 245 0 gusting 3 16.1
2019-Jun-16 16:52 245 0 gusting 5 16.1
2019-Jun-16 16:48 243 0 gusting 6 16.1
2019-Jun-16 16:44 229 1 gusting 6 15.6
2019-Jun-16 16:40 221 1 gusting 6 15.6
2019-Jun-16 16:32 214 0 gusting 6 15.6
2019-Jun-16 16:28 217 15.0
2019-Jun-16 16:24 217 0 gusting 5 15.0
2019-Jun-16 16:20 216 0 gusting 5 15.0
2019-Jun-16 16:12 237 1 gusting 9 15.0
2019-Jun-16 16:08 255 0 gusting 5 15.6
2019-Jun-16 16:04 245 0 gusting 5 15.6
2019-Jun-16 16:00 240 0 gusting 5 16.1
2019-Jun-16 15:52 240 16.1
2019-Jun-16 15:48 240 16.1
2019-Jun-16 15:44 240 0 gusting 2 16.7
2019-Jun-16 15:40 240 16.7
2019-Jun-16 15:32 240 16.1
2019-Jun-16 15:28 240 16.7
2019-Jun-16 15:24 240 16.7
2019-Jun-16 15:20 226 0 gusting 6 17.2
2019-Jun-16 15:12 183 1 gusting 6 17.8
2019-Jun-16 15:08 174 2 gusting 6 18.3
2019-Jun-16 15:04 184 1 gusting 6 18.3
2019-Jun-16 15:00 202 1 gusting 6 18.9
2019-Jun-16 14:52 182 0 gusting 5 19.4
2019-Jun-16 14:48 179 0 gusting 5 19.4
2019-Jun-16 14:44 177 0 gusting 5 19.4
2019-Jun-16 14:40 175 0 gusting 5 18.9
2019-Jun-16 14:32 200 1 gusting 6 18.9
2019-Jun-16 14:28 206 1 gusting 6 18.9
2019-Jun-16 14:24 208 1 gusting 6 18.9
2019-Jun-16 14:20 209 1 gusting 4 18.9
2019-Jun-16 14:12 237 1 gusting 6 17.8
2019-Jun-16 14:08 225 1 gusting 6 17.8
2019-Jun-16 14:04 217 2 gusting 10 17.8
2019-Jun-16 14:00 226 2 gusting 10 17.2
2019-Jun-16 13:52 247 1 gusting 8 17.2
2019-Jun-16 13:48 235 1 gusting 8 16.7
2019-Jun-16 13:44 225 2 gusting 8 17.2
2019-Jun-16 13:40 223 2 gusting 8 17.2
2019-Jun-16 13:32 206 1 gusting 7 17.2
2019-Jun-16 13:28 200 2 gusting 7 17.8
2019-Jun-16 13:24 212 2 gusting 12 17.8
2019-Jun-16 13:20 220 2 gusting 12 17.2
2019-Jun-16 13:12 214 2 gusting 8 17.2
2019-Jun-16 13:08 213 1 gusting 8 17.8
2019-Jun-16 13:04 225 1 gusting 6 17.8
2019-Jun-16 13:00 225 1 gusting 6 17.2